Location: Unspecified
(0.0000°N, 0.0000°E)
Time: 05:18:23
(UTC+00:00)

S-56A Canister/Altair - Pass Details

Date: 02 June 2024
Orbit: 637 x 2489 km, 38.9° (Epoch: 21 June)

Event Time Altitude Azimuth Distance (km) Brightness Sun altitude
Rises 11:32:04 0° 308° (NW) 4,158 11.4 66.8°
Reaches altitude 10° 11:35:22 10° 307° (NW) 2,914 10.8 67.0°
Maximum altitude 11:42:00 74° 222° (SW) 851 8.8 67.4°
Drops below altitude 10° 11:46:49 10° 137° (SE) 2,143 9.8 67.5°
Sets 11:48:55 0° 135° (SE) 2,982 10.4 67.6°
